Temp
2 2 2 3 3 3 3 3 3 4 4 3 3 3 3 3 3 3 3 2 2 2 2 3 3 3 2 2 2 1 1 1 0 2 3 3 3 3 4 3 2 2 2 2
2 2 2 2 2 3 3 2 3 3 3 3 3 3 3 2 2 3 2 2 3 3 2 2 2 1 1 1 1 1 1 1 1 3 4 3 3 3 3 3 2 2 -0 2
2 2 2 2 2 2 2 3 2 3 3 2 2 2 2 3 3 3 3 2 2 1 2 2 1 1 1 1 1 0 -0 -0 0 1 1 1 1 1 2 2 2 2 2 2
2 2 2 2 2 2 2 2 2 2 2 3 2 2 2 2 2 2 2 1 1 1 1 1 1 1 1 0 0 0 -0 -1 -1 -0 -0 -0 -1 -0 1 1 1 1 1 2
2 1 1 1 1 1 1 1 2 2 2 2 1 2 2 2 1 1 1 1 1 0 0 0 0 0 -0 -0 -0 -0 -1 -1 -1 -1 -1 -1 -1 -0 1 0 1 1 2 2
1 1 1 1 1 1 1 1 1 1 1 1 1 1 1 1 0 0 1 0 -0 -0 -1 -1 -0 -0 -0 0 -0 -0 -1 -1 -1 -2 -1 -2 -2 1 2 1 1 1 1 1
0 1 1 1 1 0 0 1 0 1 1 1 0 0 0 0 0 -0 -0 -1 -1 -1 -1 -1 -0 0 0 1 1 -0 -1 -1 -1 -2 -2 -2 1 1 2 1 1 0 0 0
0 0 0 0 0 0 0 0 0 -0 0 0 -0 -0 -0 -1 -1 -1 -1 -1 -1 -1 -1 -1 -1 -1 -0 0 0 0 -1 -1 -1 -2 -2 -2 -2 1 1 0 -0 -0 -2 -1
-1 -1 -0 -0 -0 -0 -0 -0 -0 -0 -1 1 -0 -1 -1 -1 -1 -1 -1 -1 -0 -1 -1 -2 -2 -2 -2 -1 -1 -0 -0 -1 -1 -2 -2 -2 -1 -0 -1 -1 -2 -1 -2 -2
-1 -1 -1 -1 -1 -1 -1 -0 -1 -1 -0 0 -0 -1 -1 -1 -1 -1 -1 -1 -1 -1 -2 -3 -3 -3 -2 -2 -2 -2 -2 -2 -2 -2 -3 -2 -1 -1 -2 -2 -2 -3 -3 -3
-1 -1 -1 -1 -1 -1 -1 -1 -1 -1 -1 0 -0 -1 -1 -1 -1 -1 -1 -2 -2 -2 -2 -3 -2 -3 -2 -3 -2 -2 -2 -3 -3 -3 -3 -2 -1 -1 -2 -3 -3 -3 -3 -3
-1 -1 -1 -2 -2 -2 -1 -1 -1 -2 -2 -2 -1 -1 0 -1 -1 -1 -2 -2 -2 -3 -3 -3 -3 -3 -3 -3 -4 -3 -4 -3 -3 -3 -2 -2 -2 -3 -3 -3 -4 -3 -4 -4
-2 -1 -1 -2 -2 -2 -2 -2 -1 -2 -2 -2 -2 -1 -1 -2 -1 -2 -2 -2 -2 -2 -2 -3 -3 -3 -3 -4 -3 -4 -4 -3 -4 -4 -2 -3 -3 -3 -4 -4 -4 -4 -4 -5
-2 -2 -3 -3 -2 -2 -2 -3 -2 -3 -3 -3 -2 -1 -1 -2 -2 -2 -2 -2 -2 -3 -3 -3 -3 -4 -4 -3 -3 -4 -4 -4 -5 -4 -3 -4 -3 -4 -4 -5 -5 -4 -5 -5
-3 -3 -3 -3 -3 -4 -4 -3 -4 -4 -4 -4 -3 -3 -2 -2 -2 -3 -3 -3 -3 -3 -3 -3 -3 -4 -4 -3 -4 -5 -4 -4 -4 -4 -4 -4 -4 -4 -5 -5 -4 -5 -6 -7
-3 -3 -3 -4 -4 -4 -4 -4 -3 -3 -4 -4 -4 -3 -3 -2 -2 -3 -2 -2 -3 -3 -4 -4 -4 -4 -4 -4 -4 -4 -4 -4 -5 -4 -4 -4 -5 -4 -5 -5 -5 -7 -8 -7
-3 -3 -3 -4 -3 -3 -3 -3 -3 -3 -3 -3 -3 -3 -3 -3 -3 -3 -3 -3 -3 -3 -4 -4 -4 -4 -4 -4 -4 -0 -4 -4 -4 -5 -5 -5 -5 -5 -6 -7 -7 -8 -8 -7
-3 -3 -3 -4 -4 -4 -3 -3 -3 -4 -3 -4 -4 -3 -4 -4 -4 -4 -4 -3 -3 -4 -3 -4 -4 -4 -4 -5 -3 -3 -3 -5 -5 -5 -5 -6 -6 -6 -6 -7 -9 -7 -7 -7
-3 -3 -4 -5 -5 -4 -4 -4 -4 -4 -4 -4 -4 -4 -4 -4 -4 -5 -5 -5 -4 -4 -4 -4 -5 -4 -5 -4 -4 -5 -5 -6 -6 -6 -6 -7 -7 -7 -6 -7 -7 -8 -8 -8
-4 -4 -5 -6 -5 -4 -4 -5 -4 -4 -5 -5 -5 -4 -5 -5 -5 -5 -6 -6 -6 -6 -5 -5 -6 -5 -4 -5 -5 -6 -6 -6 -6 -6 -6 -7 -8 -8 -8 -9 -8 -9 -9 -9
-4 -5 -5 -6 -5 -5 -5 -5 -6 -6 -6 -6 -6 -5 -5 -5 -6 -6 -7 -7 -7 -7 -6 -7 -7 -6 -6 -6 -6 -6 -6 -6 -7 -7 -8 -9 -9 -9 -9 -9 -9 -10 -10 -10
-6 -6 -6 -7 -7 -7 -7 -7 -7 -7 -7 -7 -6 -6 -7 -7 -7 -8 -8 -8 -8 -7 -7 -7 -7 -7 -7 -6 -7 -7 -8 -8 -8 -8 -8 -8 -9 -9 -10 -10 -10 -10 -10 -11
-8 -8 -8 -8 -8 -8 -8 -8 -8 -8 -7 -8 -8 -8 -8 -8 -8 -9 -9 -8 -8 -8 -8 -8 -7 -7 -8 -8 -9 -9 -9 -9 -8 -8 -9 -9 -9 -10 -10 -10 -10 -11 -11 -12
-9 -9 -9 -8 -8 -9 -10 -9 -8 -8 -8 -8 -8 -9 -9 -9 -9 -9 -9 -9 -9 -8 -8 -7 -7 -8 -8 -9 -9 -9 -9 -8 -9 -9 -9 -9 -10 -10 -10 -11 -11 -11 -12 -12
-10 -10 -9 -9 -9 -9 -9 -10 -9 -9 -9 -9 -9 -9 -10 -10 -10 -10 -10 -10 -9 -8 -8 -8 -8 -9 -9 -9 -9 -9 -9 -9 -10 -10 -10 -10 -10 -11 -10 -11 -11 -12 -12 -12
-11 -10 -9 -9 -9 -9 -10 -10 -10 -10 -10 -10 -11 -11 -11 -11 -10 -10 -10 -10 -9 -8 -8 -9 -9 -9 -9 -10 -10 -10 -11 -11 -11 -11 -11 -11 -11 -10 -11 -11 -12 -12 -12 -13
-11 -10 -10 -10 -10 -10 -10 -11 -11 -11 -11 -11 -11 -12 -11 -11 -11 -11 -11 -10 -10 -10 -10 -10 -10 -11 -11 -12 -12 -12 -11 -11 -11 -11 -11 -11 -11 -11 -12 -12 -12 -12 -13 -13
Height
3145 3147 3148 3149 3150 3150 3151 3151 3154 3152 3153 3156 3155 3157 3157 3156 3156 3157 3157 3158 3159 3159 3160 3159 3160 3160 3158 3156 3154 3155 3152 3151 3147 3143 3141 3143 3142 3141 3141 3138 3135 3132 3125 3110
3143 3145 3146 3148 3149 3151 3151 3152 3152 3153 3153 3154 3154 3155 3156 3156 3157 3157 3158 3158 3158 3158 3159 3159 3159 3158 3156 3155 3154 3152 3151 3150 3146 3142 3142 3141 3141 3139 3137 3134 3130 3125 3123 3105
3141 3143 3145 3147 3148 3149 3152 3152 3153 3153 3153 3154 3155 3156 3156 3156 3157 3156 3156 3157 3157 3158 3158 3158 3157 3158 3156 3154 3152 3151 3150 3148 3149 3147 3143 3142 3137 3134 3129 3127 3122 3112 3113 3097
3138 3140 3143 3145 3147 3148 3150 3150 3151 3152 3153 3154 3154 3155 3157 3158 3158 3156 3156 3157 3157 3157 3156 3156 3156 3156 3155 3153 3152 3149 3147 3144 3144 3141 3138 3136 3132 3126 3120 3117 3113 3110 3096 3100
3134 3137 3140 3142 3144 3146 3148 3148 3150 3150 3151 3152 3154 3153 3156 3157 3156 3156 3157 3156 3157 3156 3156 3156 3154 3152 3151 3150 3149 3148 3144 3137 3136 3132 3131 3130 3125 3119 3111 3106 3105 3101 3096 3091
3130 3134 3136 3139 3141 3143 3144 3146 3147 3148 3149 3150 3152 3153 3155 3155 3154 3153 3154 3154 3154 3153 3151 3150 3149 3147 3146 3144 3142 3140 3140 3136 3131 3125 3126 3122 3117 3109 3107 3103 3102 3098 3090 3085
3127 3130 3133 3136 3138 3140 3141 3143 3144 3146 3146 3148 3150 3151 3152 3153 3153 3152 3151 3151 3150 3150 3146 3144 3143 3141 3139 3137 3134 3134 3133 3132 3129 3122 3121 3115 3109 3105 3102 3095 3094 3090 3084 3079
3122 3126 3128 3131 3134 3136 3137 3139 3141 3142 3142 3144 3146 3147 3148 3148 3149 3148 3147 3147 3145 3143 3142 3139 3136 3134 3131 3131 3130 3130 3130 3127 3125 3121 3114 3104 3102 3098 3097 3091 3084 3084 3078 3072
3116 3120 3123 3126 3129 3131 3133 3135 3136 3137 3139 3139 3142 3143 3145 3144 3143 3143 3142 3141 3139 3140 3137 3135 3133 3133 3131 3130 3129 3127 3128 3126 3125 3121 3111 3097 3094 3092 3089 3085 3074 3074 3071 3067
3110 3113 3117 3120 3123 3125 3128 3131 3132 3133 3132 3135 3135 3137 3139 3140 3139 3139 3138 3136 3136 3135 3133 3132 3130 3126 3129 3126 3124 3122 3121 3120 3117 3111 3105 3090 3086 3086 3082 3079 3072 3069 3062 3056
3105 3108 3111 3114 3117 3118 3121 3124 3126 3127 3125 3129 3128 3131 3134 3134 3134 3134 3135 3133 3131 3129 3128 3126 3124 3120 3121 3119 3119 3119 3118 3116 3111 3103 3099 3086 3086 3084 3083 3076 3065 3061 3053 3047
3097 3102 3106 3109 3111 3113 3114 3118 3119 3120 3120 3120 3122 3123 3127 3127 3129 3128 3127 3126 3127 3123 3122 3120 3116 3114 3111 3110 3104 3110 3108 3109 3102 3099 3089 3081 3080 3078 3071 3066 3058 3050 3045 3038
3090 3094 3098 3102 3105 3107 3109 3111 3113 3113 3111 3110 3111 3117 3121 3118 3119 3120 3118 3119 3120 3119 3119 3115 3109 3104 3104 3099 3095 3094 3094 3097 3089 3084 3076 3073 3068 3064 3063 3055 3048 3042 3036 3028
3082 3086 3090 3094 3097 3100 3101 3103 3106 3106 3104 3099 3097 3106 3108 3111 3109 3108 3109 3109 3111 3110 3110 3105 3099 3096 3094 3087 3087 3086 3089 3085 3078 3067 3062 3059 3055 3056 3052 3045 3039 3031 3026 3020
3072 3076 3080 3085 3088 3090 3091 3092 3094 3096 3100 3092 3089 3089 3097 3099 3100 3100 3100 3100 3102 3102 3099 3094 3089 3087 3088 3077 3074 3071 3077 3071 3069 3057 3056 3053 3045 3043 3041 3035 3026 3022 3017 3010
3064 3067 3071 3075 3079 3080 3081 3081 3083 3087 3088 3088 3079 3075 3076 3084 3089 3090 3090 3092 3090 3090 3086 3080 3077 3077 3079 3069 3056 3063 3065 3064 3061 3054 3051 3045 3040 3036 3031 3025 3021 3016 3011 3003
3056 3060 3064 3069 3071 3072 3072 3071 3070 3079 3081 3079 3074 3070 3065 3070 3074 3077 3080 3081 3080 3077 3074 3068 3069 3069 3068 3058 3050 3052 3055 3053 3050 3047 3041 3031 3030 3026 3022 3016 3012 3010 3004 2995
3049 3052 3056 3060 3064 3063 3063 3062 3064 3066 3070 3070 3068 3062 3060 3062 3065 3068 3068 3067 3066 3064 3061 3058 3059 3060 3053 3047 3044 3045 3045 3044 3043 3035 3029 3027 3021 3019 3015 3009 3007 3001 2992 2986
3041 3044 3047 3051 3054 3054 3055 3058 3058 3059 3063 3057 3055 3055 3055 3056 3056 3057 3056 3055 3053 3053 3050 3050 3053 3046 3039 3038 3039 3038 3038 3035 3026 3023 3020 3015 3013 3011 3008 3003 2997 2991 2984 2978
3033 3038 3041 3042 3044 3046 3051 3051 3051 3048 3046 3046 3047 3048 3050 3052 3050 3050 3051 3047 3047 3043 3041 3041 3034 3027 3031 3032 3031 3029 3024 3021 3018 3014 3013 3008 3007 3004 2999 2995 2989 2983 2976 2971
3026 3028 3031 3034 3037 3040 3041 3042 3041 3040 3037 3035 3037 3042 3044 3042 3044 3044 3043 3039 3038 3035 3035 3032 3024 3019 3023 3023 3022 3017 3016 3015 3012 3008 3005 3004 3000 2996 2990 2986 2980 2974 2968 2962
3022 3023 3025 3029 3030 3032 3036 3032 3032 3032 3033 3032 3032 3035 3035 3035 3037 3037 3036 3036 3034 3028 3024 3023 3015 3017 3016 3015 3013 3013 3009 3007 3005 3003 2999 2995 2991 2986 2980 2974 2969 2964 2959 2954
3018 3020 3024 3024 3024 3025 3025 3024 3024 3025 3025 3027 3029 3031 3031 3031 3033 3032 3033 3030 3027 3023 3019 3015 3012 3013 3011 3008 3004 3001 3001 2999 2996 2993 2990 2985 2979 2975 2969 2964 2959 2953 2950 2946
3016 3020 3020 3019 3017 3017 3019 3021 3021 3021 3021 3023 3024 3026 3028 3027 3029 3029 3026 3023 3021 3016 3013 3011 3011 3008 3004 3000 2998 2996 2994 2991 2986 2983 2979 2975 2969 2964 2960 2955 2949 2945 2941 2938
3014 3016 3014 3012 3011 3014 3018 3017 3018 3018 3018 3021 3022 3022 3023 3023 3025 3024 3021 3017 3011 3007 3006 3008 3005 3000 2996 2993 2991 2989 2984 2981 2978 2974 2969 2965 2960 2955 2950 2945 2940 2936 2933 2929
3010 3010 3008 3007 3009 3011 3013 3015 3016 3015 3015 3018 3019 3018 3017 3016 3018 3015 3009 3007 3001 3001 3002 2999 2995 2993 2990 2986 2983 2978 2975 2971 2966 2963 2958 2954 2950 2944 2940 2935 2931 2928 2924 2923
3002 3003 3004 3004 3006 3008 3010 3012 3013 3012 3013 3014 3015 3015 3013 3012 3007 3002 2999 2995 2994 2993 2990 2987 2986 2983 2979 2974 2970 2967 2963 2959 2955 2951 2948 2944 2939 2934 2929 2925 2922 2920 2918 2917
Wind_Speed
8 6 6 4 0 3 3 6 1 2 3 2 4 2 3 2 1 1 1 2 3 2 5 4 3 3 4 12 11 8 8 8 12 21 10 9 8 9 12 13 13 24 29 32
10 9 9 7 5 2 1 3 1 2 2 4 3 2 2 3 2 1 2 2 2 4 3 3 3 4 12 12 7 7 12 4 10 9 1 2 15 25 27 29 29 22 15 24
13 12 10 9 8 6 5 2 3 2 2 4 2 4 2 2 2 2 2 3 4 3 2 4 4 9 8 18 17 18 14 9 8 15 20 27 31 30 34 34 35 36 33 49
15 14 13 11 9 8 7 6 5 3 0 3 7 4 3 2 5 5 3 3 2 2 4 9 5 7 15 13 16 18 15 18 17 24 26 26 31 33 34 37 39 37 47 39
20 19 16 13 12 10 10 8 8 8 7 5 2 4 3 4 5 2 3 3 5 5 7 10 15 15 13 16 15 16 18 28 30 35 36 27 28 35 44 36 29 27 31 37
22 20 19 17 14 12 13 12 13 11 9 9 8 5 3 3 6 8 8 7 7 12 16 18 20 23 25 26 25 26 26 31 32 28 30 30 31 22 20 22 28 29 31 40
23 22 21 19 18 16 16 14 15 14 14 12 8 6 7 7 8 9 9 10 12 16 22 25 26 26 26 25 20 19 26 29 31 25 29 7 11 18 29 25 22 27 36 37
25 24 22 21 20 19 19 16 17 17 19 16 13 12 12 11 12 14 15 12 17 22 23 24 24 27 15 17 8 8 8 19 21 15 22 34 27 20 18 31 31 31 20 17
28 25 24 22 21 20 20 19 18 19 20 21 17 14 12 16 18 18 18 21 18 16 23 21 13 8 12 6 10 13 15 18 19 27 25 15 23 35 20 23 31 19 22 49
32 29 26 25 22 21 21 21 20 21 24 22 22 18 15 17 19 19 19 20 20 20 20 20 20 17 14 12 12 14 19 23 28 33 26 26 31 28 21 17 20 52 51 41
35 32 29 28 26 24 24 23 23 25 28 25 26 24 21 21 22 22 23 22 22 22 21 21 24 17 16 18 18 20 22 22 26 26 19 20 12 24 29 49 53 48 60 51
37 35 32 30 29 27 28 25 25 29 31 31 31 29 27 23 22 25 25 27 22 16 18 22 21 26 32 33 36 31 21 19 29 31 30 49 50 49 50 50 51 48 43 44
39 37 34 31 31 30 30 29 28 29 33 39 38 34 28 33 33 31 36 34 33 33 32 34 34 35 38 39 28 33 23 34 39 43 50 49 48 42 42 42 44 49 32 44
43 39 37 38 40 38 38 35 32 33 35 42 46 38 38 34 37 41 32 37 31 35 34 34 42 46 38 43 48 37 37 45 47 54 49 44 43 47 47 42 45 37 41 46
49 48 47 47 45 43 40 37 38 36 36 38 41 46 46 44 40 27 23 25 26 29 40 41 46 45 45 51 53 48 40 43 41 45 41 45 50 40 38 42 35 47 32 36
31 32 35 31 33 38 40 44 43 43 43 46 56 53 44 43 35 39 35 36 36 38 43 49 47 49 41 46 53 49 42 38 37 50 35 36 41 43 42 38 49 23 30 40
31 32 32 36 36 36 36 42 43 36 31 40 44 42 43 35 31 24 23 28 31 34 38 43 45 47 46 49 55 49 49 47 40 31 36 35 35 36 38 28 25 30 38 47
27 29 32 34 34 40 41 45 42 41 39 35 36 43 43 32 27 29 29 28 29 37 43 46 44 44 47 53 52 52 42 32 29 38 40 40 41 42 38 36 34 41 46 52
26 26 27 29 35 37 39 37 35 36 36 35 38 44 38 32 27 23 21 27 36 37 42 43 44 49 48 52 48 40 33 41 40 45 33 30 38 37 34 37 41 49 53 51
25 24 24 26 32 34 35 40 44 42 42 38 41 37 30 29 35 32 24 19 21 22 37 30 37 48 42 42 42 32 32 31 34 35 36 29 29 33 38 44 47 46 46 47
24 26 27 30 32 32 33 23 17 16 15 20 32 35 36 34 30 29 23 10 10 12 21 20 23 29 24 11 17 24 26 29 33 33 28 27 35 42 45 45 44 42 44 44
20 20 21 22 22 18 13 12 13 12 10 11 13 16 18 21 20 11 9 11 8 11 17 16 21 22 17 21 23 26 25 26 27 30 38 43 47 49 49 48 48 46 44 40
13 13 13 9 11 15 10 12 8 8 13 16 16 14 12 12 11 8 8 8 11 14 11 15 19 12 19 12 12 17 21 30 37 46 51 51 49 47 46 46 46 42 40 37
14 11 10 8 7 8 10 13 14 16 15 14 14 14 9 12 12 11 8 11 12 10 17 21 23 15 15 20 26 28 34 45 50 50 48 48 47 44 45 45 45 40 36 36
17 9 7 13 15 14 10 13 16 15 15 16 16 17 17 17 11 9 8 7 10 14 19 19 20 21 24 28 36 42 48 51 49 46 49 43 41 43 45 42 36 34 34 34
20 14 13 15 13 15 15 11 10 12 14 15 16 15 11 14 11 15 14 14 24 27 25 26 30 33 39 46 48 49 50 49 48 47 46 45 46 46 41 36 33 32 29 24
16 21 26 23 14 6 8 9 10 15 18 22 23 13 15 13 14 21 22 28 30 31 33 36 41 42 44 49 50 49 48 51 51 46 43 42 41 41 37 34 29 24 20 17
Wind_Direction
217 228 236 239 6 54 81 112 294 279 177 120 126 183 184 188 307 317 345 71 48 53 354 354 337 317 262 315 337 356 324 308 297 304 303 279 315 308 308 287 281 277 291 283
222 229 239 244 252 272 359 80 79 160 150 343 246 229 211 161 72 238 58 37 351 347 356 359 355 329 309 329 346 306 313 282 318 349 214 282 317 307 301 300 296 282 266 274
228 233 241 247 250 255 267 274 241 280 219 97 109 135 127 298 255 303 303 303 342 349 358 326 323 312 302 328 331 321 303 292 277 276 287 301 305 303 299 298 295 294 280 289
237 241 241 244 249 254 253 247 241 248 307 206 178 200 165 230 333 297 309 340 342 332 300 309 340 314 302 300 295 299 299 288 293 285 289 296 297 297 296 291 292 291 293 296
232 240 244 243 247 251 250 220 229 237 246 233 179 246 197 205 268 187 298 320 302 301 306 311 309 299 298 295 293 289 287 279 290 289 298 302 299 290 297 292 293 288 294 296
234 239 243 246 249 250 251 247 255 252 250 244 246 284 265 240 231 289 290 274 288 283 280 278 284 289 292 294 290 287 276 279 285 287 296 298 301 314 306 296 301 292 294 297
236 240 244 249 251 251 252 255 255 258 255 257 260 254 254 258 269 266 264 292 295 290 285 294 294 299 302 301 300 279 271 278 282 285 297 251 290 275 302 303 289 286 298 301
235 240 243 245 249 252 253 253 256 259 262 259 256 251 253 258 261 272 286 286 267 282 297 300 309 317 323 327 338 325 294 268 277 279 277 287 295 310 304 306 294 296 294 285
234 238 242 242 245 250 252 252 252 257 263 268 265 253 264 274 281 275 275 280 284 293 293 294 297 296 296 292 296 288 287 284 281 286 287 294 291 291 319 290 283 274 305 309
235 234 239 242 243 245 250 256 258 259 265 269 270 262 264 263 266 273 273 285 291 291 287 284 283 275 280 272 274 285 291 296 296 286 274 288 303 313 290 281 285 316 315 306
241 239 236 240 242 243 247 251 259 261 265 266 270 267 262 266 268 266 274 279 279 282 278 279 284 275 277 260 275 285 289 296 283 280 272 282 308 306 309 305 300 301 304 309
241 241 240 240 244 248 250 251 259 266 266 265 268 264 267 263 266 266 264 263 264 267 275 279 278 276 279 273 281 292 264 276 279 271 275 293 292 297 293 292 298 301 309 313
238 237 238 241 247 250 255 259 263 269 273 274 267 269 264 268 268 266 266 266 271 270 279 279 275 276 281 279 284 290 266 297 284 295 300 300 305 305 312 312 299 309 306 306
242 241 241 253 255 252 252 252 257 262 272 274 273 264 267 267 266 271 259 274 266 274 275 272 272 272 277 279 288 278 279 288 293 295 307 309 304 309 309 308 307 294 298 303
244 244 249 254 254 248 249 249 250 254 258 265 272 274 273 275 276 260 273 273 268 271 278 270 271 272 274 284 288 282 284 292 288 298 305 300 306 316 315 303 299 303 306 314
243 253 238 238 251 252 248 257 257 264 264 261 267 277 276 280 275 274 269 283 281 278 274 274 269 274 277 280 278 289 291 288 291 295 308 309 306 293 292 294 305 313 305 314
245 246 244 242 250 261 243 252 261 263 259 260 265 277 281 288 278 268 259 273 280 267 264 266 269 275 270 271 277 297 290 297 304 308 304 284 294 302 304 307 304 307 310 324
246 244 245 243 246 246 251 253 247 264 260 266 263 270 277 274 270 278 282 279 263 247 251 260 264 267 270 276 283 291 299 305 297 284 287 293 291 295 301 301 307 313 317 323
248 246 243 236 236 244 250 258 257 253 263 259 261 264 265 269 277 286 277 251 246 247 251 260 262 264 261 272 286 291 283 290 281 286 288 296 298 300 304 302 308 317 319 321
248 244 233 233 234 236 245 257 256 259 258 257 259 258 250 265 281 284 275 266 248 252 271 275 260 265 280 283 286 286 270 271 280 282 291 291 296 304 311 317 317 318 318 317
243 240 235 238 242 246 249 251 241 235 232 241 250 253 262 269 267 270 274 259 247 254 272 255 262 269 287 276 248 253 264 282 291 292 301 301 307 311 315 316 315 318 319 319
233 233 236 236 237 238 235 229 225 230 236 243 248 248 242 243 252 251 259 260 250 254 267 257 265 278 269 269 268 275 275 281 288 301 305 309 313 314 315 316 316 315 314 316
213 207 208 215 216 218 217 215 205 204 215 230 243 244 229 242 245 239 246 241 249 266 256 259 270 290 288 249 247 257 286 303 306 309 311 311 312 313 317 317 315 311 311 312
218 215 217 217 216 218 223 206 221 221 229 232 232 233 250 265 268 250 250 250 251 247 253 261 282 275 261 263 274 285 293 301 306 308 308 309 311 313 316 313 313 309 308 304
215 212 223 226 224 229 236 230 227 223 233 244 251 255 257 256 258 254 246 248 241 255 260 262 266 282 283 286 291 295 298 299 301 304 305 308 312 310 311 309 308 306 304 297
223 222 226 240 244 242 230 227 222 224 237 247 260 275 275 267 250 246 238 240 253 267 272 275 278 280 286 290 291 294 296 300 302 303 303 307 311 311 310 305 304 303 301 296
225 236 239 247 251 230 211 217 252 263 268 274 279 267 261 264 247 245 247 253 269 276 279 281 288 291 291 292 296 297 299 300 300 302 301 307 309 310 308 305 299 298 294 284